TimeMST,TemperatureF,Dew PointF,Humidity,Sea Level PressureIn,VisibilityMPH,Wind Direction,Wind SpeedMPH,Gust SpeedMPH,PrecipitationIn,Events,Conditions,WindDirDegrees,DateUTC
12:53 AM,39.9,27.0,60,29.66,10.0,East,5.8,-,N/A,,Overcast,100,2013-01-27 07:53:00
1:53 AM,39.9,27.0,60,29.65,10.0,East,6.9,-,N/A,,Overcast,100,2013-01-27 08:53:00
2:53 AM,39.0,28.0,65,29.65,10.0,ESE,4.6,-,N/A,,Overcast,110,2013-01-27 09:53:00
3:53 AM,39.0,30.0,70,29.65,10.0,East,8.1,-,N/A,,Overcast,100,2013-01-27 10:53:00
4:53 AM,39.0,33.1,79,29.66,10.0,ESE,8.1,-,N/A,,Overcast,110,2013-01-27 11:53:00
5:53 AM,39.0,35.1,86,29.67,10.0,ESE,6.9,-,N/A,,Overcast,120,2013-01-27 12:53:00
6:53 AM,39.9,35.1,83,29.69,10.0,ESE,5.8,-,N/A,,Overcast,120,2013-01-27 13:53:00
7:53 AM,39.9,36.0,86,29.70,10.0,SE,4.6,-,N/A,,Overcast,130,2013-01-27 14:53:00
8:53 AM,42.1,36.0,79,29.70,10.0,Calm,Calm,-,N/A,,Overcast,0,2013-01-27 15:53:00
9:53 AM,46.0,35.1,66,29.69,10.0,Variable,3.5,-,N/A,,Clear,0,2013-01-27 16:53:00
10:53 AM,52.0,34.0,50,29.68,10.0,Calm,Calm,-,N/A,,Clear,0,2013-01-27 17:53:00
11:53 AM,55.0,32.0,42,29.65,10.0,Variable,4.6,-,N/A,,Clear,0,2013-01-27 18:53:00
12:53 PM,57.0,30.9,37,29.62,10.0,Variable,5.8,-,N/A,,Clear,0,2013-01-27 19:53:00
1:53 PM,57.9,30.0,35,29.60,10.0,West,12.7,18.4,N/A,,Clear,270,2013-01-27 20:53:00
2:53 PM,57.9,28.9,33,29.60,10.0,West,10.4,-,N/A,,Clear,280,2013-01-27 21:53:00
3:53 PM,57.9,28.0,32,29.61,10.0,West,10.4,-,N/A,,Clear,280,2013-01-27 22:53:00
4:53 PM,53.1,26.1,35,29.63,10.0,West,5.8,-,N/A,,Clear,280,2013-01-27 23:53:00
5:53 PM,44.1,27.0,51,29.66,10.0,NNE,10.4,-,N/A,,Partly Cloudy,30,2013-01-28 00:53:00
6:53 PM,39.9,27.0,60,29.69,10.0,NE,13.8,-,N/A,,Clear,50,2013-01-28 01:53:00
7:53 PM,39.0,28.0,65,29.71,10.0,East,6.9,-,0.00,Rain,Light Rain,80,2013-01-28 02:53:00
8:53 PM,37.0,27.0,67,29.71,10.0,NNW,4.6,-,N/A,,Mostly Cloudy,340,2013-01-28 03:53:00
9:53 PM,33.1,26.1,75,29.72,10.0,NNE,8.1,-,N/A,,Partly Cloudy,30,2013-01-28 04:53:00
10:53 PM,30.9,27.0,85,29.70,10.0,NE,9.2,-,N/A,,Clear,50,2013-01-28 05:53:00
11:53 PM,30.0,27.0,88,29.68,10.0,ESE,10.4,-,N/A,,Clear,110,2013-01-28 06:53:00